Weather History for KLAR - September, 2012

Change the Weather History Date:

Friday, September 28, 2012

  Actual Average Record
Temperature  
Mean Temperature 50 °F 48 °F  
Max Temperature 67 °F 63 °F 84 °F (2010)
Min Temperature 32 °F 33 °F 18 °F (1974)
Degree Days  
Heating Degree Days 15 17  
Month to date heating degree days 254 318  
Since 1 July heating degree days 311 490  
Cooling Degree Days 0 0  
Month to date cooling degree days 0 0  
Year to date cooling degree days 211 66  
Moisture  
Dew Point 36 °F    
Average Humidity 62    
Maximum Humidity 100    
Minimum Humidity 24    
Precipitation  
Precipitation 0.00 in 0.03 in 0.53 in (2014)
Month to date precipitation 0.47 1.04  
Year to date precipitation 4.89 9.19  
Sea Level Pressure  
Sea Level Pressure 30.08 in    
Wind  
Wind Speed 7 mph (South)    
Max Wind Speed 15 mph    
Max Gust Speed 18 mph    
Visibility 10 miles    
Events      
T = Trace of Precipitation, MM = Missing Value Source: NWS Daily Summary

Daily Weather History Graph

Daily Weather History Graph

Search for Another Location

Airport or City:

Trip Planner

Search our weather history database for the weather conditions in past years. The results will help you decide how hot, cold, wet, or windy it might be!

Date:

Astronomy

Sep. 28, 2012 Rise Set
Actual Time 6:56 AM MDT 6:48 PM MDT
Civil Twilight 6:29 AM MDT 7:16 PM MDT
Nautical Twilight 5:57 AM MDT 7:48 PM MDT
Astronomical Twilight 5:24 AM MDT 8:20 PM MDT
Moon 5:52 PM MDT (9/28) 5:29 AM MDT (9/28)
Length of Visible Light 12h 46m
Length of Day
11h 51m
Waxing Gibbous, 98% of the Moon is Illuminated
Sep 28
Waxing Gibbous
Sep 29
Full
Oct 8
Last Quarter
Oct 15
New
Oct 21
First Quarter

Hourly Weather History & Observations

Time (MDT) Temp. Windchill Dew Point Humidity Pressure Visibility Wind Dir Wind Speed Gust Speed Precip Events Conditions
12:53 AM 39.9 °F 37.8 °F 37.9 °F 93% 30.11 in 10.0 mi West 3.5 mph - N/A   Clear
1:53 AM 39.0 °F 34.0 °F 37.9 °F 96% 30.12 in 10.0 mi SE 6.9 mph - N/A   Clear
2:53 AM 37.9 °F 33.5 °F 37.0 °F 97% 30.09 in 10.0 mi SSE 5.8 mph - N/A   Clear
3:53 AM 37.0 °F 34.5 °F 35.1 °F 93% 30.11 in 10.0 mi SSW 3.5 mph - N/A   Clear
4:53 AM 35.1 °F 29.3 °F 34.0 °F 96% 30.14 in 10.0 mi SSE 6.9 mph - N/A   Clear
5:53 AM 34.0 °F 29.8 °F 33.1 °F 96% 30.12 in 10.0 mi South 4.6 mph - N/A   Clear
6:53 AM 34.0 °F 26.6 °F 33.1 °F 96% 30.14 in 10.0 mi SSE 9.2 mph - N/A   Clear
7:53 AM 37.9 °F 33.5 °F 36.0 °F 93% 30.15 in 10.0 mi SSW 5.8 mph - N/A   Clear
8:53 AM 45.0 °F 42.6 °F 41.0 °F 86% 30.14 in 10.0 mi South 4.6 mph - N/A   Clear
9:53 AM 51.1 °F - 39.9 °F 66% 30.13 in 10.0 mi South 4.6 mph - N/A   Clear
10:53 AM 57.0 °F - 37.0 °F 47% 30.10 in 10.0 mi Calm Calm - N/A   Clear
11:53 AM 60.1 °F - 37.0 °F 42% 30.08 in 10.0 mi WNW 4.6 mph - N/A   Clear
1:53 PM 64.0 °F - 28.0 °F 26% 30.03 in 10.0 mi North 4.6 mph - N/A   Clear
2:53 PM 64.9 °F - 30.0 °F 27% 30.02 in 10.0 mi Variable 4.6 mph - N/A   Clear
3:53 PM 64.9 °F - 28.9 °F 26% 30.01 in 10.0 mi WSW 5.8 mph - N/A   Scattered Clouds
4:53 PM 64.9 °F - 28.0 °F 25% 30.01 in 10.0 mi East 6.9 mph - N/A   Overcast
5:53 PM 64.0 °F - 27.0 °F 25% 30.01 in 10.0 mi NE 5.8 mph - N/A   Scattered Clouds
6:53 PM 57.9 °F - 42.1 °F 56% 30.06 in 10.0 mi SE 10.4 mph - N/A   Mostly Cloudy
7:53 PM 52.0 °F - 41.0 °F 66% 30.08 in 10.0 mi SE 11.5 mph - N/A   Partly Cloudy
8:53 PM 51.1 °F - 39.9 °F 66% 30.06 in 10.0 mi SE 12.7 mph - N/A   Clear
9:53 PM 50.0 °F - 39.9 °F 68% 30.04 in 10.0 mi SSE 15.0 mph - N/A   Clear
10:53 PM 46.0 °F 41.4 °F 39.9 °F 79% 30.03 in 10.0 mi South 9.2 mph - N/A   Clear
11:53 PM 46.0 °F 40.6 °F 39.9 °F 79% 30.02 in 10.0 mi South 11.5 mph - N/A   Clear